TimeEDT,TemperatureF,Dew PointF,Humidity,Sea Level PressureIn,VisibilityMPH,Wind Direction,Wind SpeedMPH,Gust SpeedMPH,PrecipitationIn,Events,Conditions,WindDirDegrees,DateUTC
12:53 AM,73.0,66.0,79,30.12,10.0,South,3.5,-,N/A,,Overcast,190,2013-07-05 04:53:00
1:53 AM,73.0,66.9,81,30.11,10.0,South,3.5,-,0.00,,Mostly Cloudy,170,2013-07-05 05:53:00
2:53 AM,72.0,68.0,87,30.10,10.0,Calm,Calm,-,0.00,Rain,Light Rain,0,2013-07-05 06:53:00
3:46 AM,71.6,69.8,94,30.11,1.8,SE,3.5,-,0.14,Rain,Heavy Rain,140,2013-07-05 07:46:00
3:53 AM,70.0,69.1,97,30.09,1.2,Calm,Calm,-,0.23,Rain,Heavy Rain,0,2013-07-05 07:53:00
4:05 AM,69.8,69.8,100,30.10,2.0,East,4.6,-,0.09,Rain,Heavy Rain,90,2013-07-05 08:05:00
4:16 AM,69.8,69.8,100,30.10,6.0,SE,5.8,-,0.09,Rain,Light Rain,130,2013-07-05 08:16:00
4:42 AM,69.8,69.8,100,30.10,7.0,SE,5.8,-,0.09,,Overcast,140,2013-07-05 08:42:00
4:53 AM,71.1,69.1,93,30.09,10.0,SSE,6.9,-,0.09,,Overcast,150,2013-07-05 08:53:00
5:53 AM,71.1,68.0,90,30.09,9.0,SSE,6.9,-,0.00,Rain,Light Rain,160,2013-07-05 09:53:00
6:53 AM,71.1,68.0,90,30.09,10.0,South,9.2,-,0.01,,Partly Cloudy,170,2013-07-05 10:53:00
7:53 AM,72.0,68.0,87,30.09,10.0,South,10.4,-,0.00,,Overcast,180,2013-07-05 11:53:00
8:53 AM,73.0,69.1,87,30.09,10.0,South,11.5,16.1,N/A,,Partly Cloudy,170,2013-07-05 12:53:00
9:53 AM,73.9,66.9,79,30.11,10.0,SSW,9.2,-,N/A,,Scattered Clouds,200,2013-07-05 13:53:00
10:53 AM,75.9,66.9,74,30.12,10.0,SSW,9.2,-,N/A,,Scattered Clouds,210,2013-07-05 14:53:00
11:53 AM,73.9,69.1,85,30.13,10.0,SW,8.1,-,0.01,Rain,Light Rain,220,2013-07-05 15:53:00
12:04 PM,73.4,68.0,83,30.14,10.0,SW,15.0,-,0.01,Rain,Light Rain,230,2013-07-05 16:04:00
12:12 PM,73.4,66.2,78,30.14,10.0,SW,12.7,-,0.01,Rain,Light Rain,220,2013-07-05 16:12:00
12:50 PM,73.4,68.0,83,30.14,10.0,WSW,9.2,-,0.01,,Mostly Cloudy,250,2013-07-05 16:50:00
12:53 PM,73.9,68.0,82,30.13,10.0,WSW,9.2,-,0.01,,Mostly Cloudy,250,2013-07-05 16:53:00
1:20 PM,75.2,68.0,78,30.14,10.0,WSW,10.4,-,0.00,,Scattered Clouds,250,2013-07-05 17:20:00
1:53 PM,79.0,68.0,69,30.12,10.0,SW,9.2,-,0.00,,Partly Cloudy,230,2013-07-05 17:53:00
2:53 PM,73.9,70.0,87,30.11,10.0,NW,6.9,-,N/A,,Overcast,310,2013-07-05 18:53:00
3:53 PM,73.9,69.1,85,30.11,10.0,NW,5.8,-,N/A,,Overcast,310,2013-07-05 19:53:00
4:53 PM,75.9,69.1,79,30.10,10.0,Calm,Calm,-,N/A,,Mostly Cloudy,0,2013-07-05 20:53:00
5:53 PM,75.0,68.0,79,30.07,10.0,NNE,3.5,-,N/A,,Mostly Cloudy,20,2013-07-05 21:53:00
6:53 PM,75.0,68.0,79,30.09,10.0,North,4.6,-,N/A,,Scattered Clouds,10,2013-07-05 22:53:00
7:53 PM,73.0,68.0,84,30.08,10.0,NE,4.6,-,N/A,,Clear,50,2013-07-05 23:53:00
8:53 PM,72.0,68.0,87,30.09,10.0,Calm,Calm,-,N/A,,Scattered Clouds,0,2013-07-06 00:53:00
9:53 PM,71.1,66.0,84,30.09,10.0,NE,3.5,-,N/A,,Scattered Clouds,50,2013-07-06 01:53:00
10:53 PM,73.9,66.9,79,30.11,10.0,SSE,4.6,-,N/A,,Partly Cloudy,160,2013-07-06 02:53:00
11:53 PM,73.9,66.9,79,30.12,10.0,South,8.1,-,N/A,,Clear,190,2013-07-06 03:53:00